Date String (YYYY-MM-DD hh:mm:ss) UTC,Instrument flags,absolute air pressure of the measurement (hPa),sample flow rate (lpm),inlet stack bypass flow (lpm),air temperature of the measurement (°C),ambient temperature measured by the external sensor (°C),aerosol sample conditioner tube jacket temperature (°C),OPC LED temperature (°C),internal box temperature (°C),relative humidity of the measurement (%),span deviation,mass concentration of particles derived from Lorenz-Mie calculation of OPC scattering (μg/m³),mass concentration of particles derived from Lorenz-Mie calculation of OPC scattering (μg/m³),mass concentration of particles derived from Lorenz-Mie calculation of OPC scattering (μg/m³)
DateTimeUTC,F1_M11,P_M11,Q1_M11,Q2_M11,T1_M11,T2_M11,T3_M11,T4_M11,T5_M11,U1_M11,ZSPAN_M11,X2_M11,X0_M11,X1_M11
2023-09-01 05:00:00,SystemResetWarning,0828.9,5.01,000.00,027.8,024.9,000.0,036.1,029.1,21.4,0000.0,0004.01,0010.21,0003.37
2023-09-01 05:01:00,SystemResetWarning,0828.9,4.99,000.00,027.7,025.2,000.0,036.1,029.1,21.5,0000.0,0003.99,0010.76,0003.35
2023-09-01 05:02:00,SystemResetWarning,0828.9,5.00,000.00,027.8,025.5,000.0,036.1,029.3,21.4,0000.0,0003.98,0011.06,0003.34
2023-09-01 05:03:00,SystemResetWarning,0828.9,5.01,000.00,027.8,025.9,000.0,036.1,029.4,21.3,0000.0,0003.96,0011.22,0003.33
2023-09-01 05:04:00,SystemResetWarning,0828.9,5.00,000.00,027.8,026.2,000.0,036.2,029.5,21.3,0000.0,0003.97,0010.76,0003.32
2023-09-01 05:05:00,SystemResetWarning,0828.9,5.00,000.00,027.9,026.4,000.0,036.2,029.6,21.4,0000.0,0003.99,0010.98,0003.30
2023-09-01 05:06:00,SystemResetWarning,0828.9,5.00,000.00,027.9,026.6,000.0,036.2,029.6,21.2,0000.0,0004.00,0011.58,0003.29
2023-09-01 05:07:00,SystemResetWarning,0828.9,5.00,000.00,028.0,026.8,000.0,036.2,029.7,21.2,0000.0,0004.00,0012.12,0003.28
2023-09-01 05:08:00,SystemResetWarning,0828.9,5.00,000.00,028.0,027.0,000.0,036.3,029.8,21.1,0000.0,0003.95,0011.77,0003.28
2023-09-01 05:09:00,SystemResetWarning,0828.9,5.00,000.00,028.1,027.1,000.0,036.3,029.8,21.0,0000.0,0003.91,0011.03,0003.28
2023-09-01 05:10:00,SystemResetWarning,0828.9,4.99,000.00,028.1,027.0,000.0,036.3,029.8,21.0,0000.0,0003.89,0010.27,0003.28
2023-09-01 05:11:00,SystemResetWarning,0829.0,4.99,000.00,028.1,025.6,000.0,036.3,029.3,20.8,0000.0,0003.86,0010.02,0003.28
2023-09-01 05:12:00,SystemResetWarning,0829.0,5.00,000.00,027.9,024.0,000.0,036.2,028.8,20.8,0000.0,0003.86,0009.24,0003.28
2023-09-01 05:13:00,SystemResetWarning,0828.9,5.00,000.00,027.7,023.8,000.0,036.1,028.8,21.2,0000.0,0003.85,0008.97,0003.28
2023-09-01 05:14:00,SystemResetWarning,0829.0,5.01,000.00,027.6,024.1,000.0,036.1,028.8,21.1,0000.0,0003.87,0008.79,0003.28
2023-09-01 05:15:00,SystemResetWarning,0829.0,5.01,000.00,027.6,024.5,000.0,036.1,028.9,21.1,0000.0,0003.90,0008.96,0003.29
2023-09-01 05:16:00,SystemResetWarning,0829.0,4.98,000.00,027.6,025.0,000.0,036.1,029.1,21.0,0000.0,0003.92,0008.99,0003.30
2023-09-01 05:17:00,SystemResetWarning,0829.0,5.00,000.00,027.7,025.4,000.0,036.1,029.2,20.9,0000.0,0003.92,0008.58,0003.31
2023-09-01 05:18:00,SystemResetWarning,0828.9,5.00,000.00,027.7,025.8,000.0,036.1,029.3,21.1,0000.0,0003.93,0008.44,0003.30
2023-09-01 05:19:00,SystemResetWarning,0829.0,5.01,000.00,027.7,026.1,000.0,036.1,029.4,21.2,0000.0,0003.96,0008.81,0003.29
2023-09-01 05:20:00,SystemResetWarning,0828.9,5.00,000.00,027.8,026.3,000.0,036.2,029.5,21.0,0000.0,0003.98,0009.30,0003.29
2023-09-01 05:21:00,SystemResetWarning,0828.9,4.99,000.00,027.8,026.5,000.0,036.2,029.5,20.6,0000.0,0004.02,0009.51,0003.29
2023-09-01 05:22:00,SystemResetWarning,0829.0,4.99,000.00,027.9,026.7,000.0,036.2,029.6,20.0,0000.0,0004.02,0009.57,0003.29
2023-09-01 05:23:00,SystemResetWarning,0829.0,5.00,000.00,027.9,026.9,000.0,036.2,029.7,20.1,0000.0,0004.03,0009.75,0003.29
2023-09-01 05:24:00,SystemResetWarning,0829.0,4.99,000.00,028.0,027.0,000.0,036.3,029.7,20.4,0000.0,0004.03,0010.12,0003.29
2023-09-01 05:25:00,SystemResetWarning,0829.0,5.00,000.00,028.0,027.1,000.0,036.3,029.8,20.3,0000.0,0003.99,0010.15,0003.29
2023-09-01 05:26:00,SystemResetWarning,0829.0,5.00,000.00,028.1,027.2,000.0,036.3,029.9,20.2,0000.0,0003.93,0010.26,0003.27
2023-09-01 05:27:00,SystemResetWarning,0829.0,4.99,000.00,028.1,026.6,000.0,036.3,029.7,20.1,0000.0,0003.90,0010.58,0003.27
2023-09-01 05:28:00,SystemResetWarning,0828.9,4.99,000.00,028.0,025.1,000.0,036.2,029.3,20.0,0000.0,0003.92,0010.89,0003.27
2023-09-01 05:29:00,SystemResetWarning,0829.0,5.00,000.00,027.9,024.8,000.0,036.2,029.2,20.1,0000.0,0003.92,0010.54,0003.27
2023-09-01 05:30:00,SystemResetWarning,0829.0,5.01,000.00,027.8,025.0,000.0,036.2,029.2,20.3,0000.0,0003.90,0009.92,0003.29
2023-09-01 05:31:00,SystemResetWarning,0828.9,5.01,000.00,027.8,025.3,000.0,036.2,029.3,20.4,0000.0,0003.90,0009.60,0003.31
2023-09-01 05:32:00,SystemResetWarning,0829.0,5.00,000.00,027.9,025.6,000.0,036.2,029.4,20.4,0000.0,0003.88,0009.91,0003.32
2023-09-01 05:33:00,SystemResetWarning,0829.0,5.00,000.00,027.9,026.0,000.0,036.3,029.5,20.5,0000.0,0003.91,0010.36,0003.33
2023-09-01 05:34:00,SystemResetWarning,0829.0,4.99,000.00,027.9,026.3,000.0,036.3,029.6,20.4,0000.0,0003.94,0010.88,0003.35
2023-09-01 05:35:00,SystemResetWarning,0829.0,5.00,000.00,028.0,026.5,000.0,036.3,029.6,20.1,0000.0,0003.95,0010.89,0003.37
2023-09-01 05:36:00,SystemResetWarning,0829.0,5.00,000.00,028.0,026.7,000.0,036.3,029.7,20.0,0000.0,0004.02,0011.15,0003.40
2023-09-01 05:37:00,SystemResetWarning,0829.0,5.00,000.00,028.1,026.9,000.0,036.4,029.8,20.1,0000.0,0004.08,0011.84,0003.43
2023-09-01 05:38:00,SystemResetWarning,0829.0,5.00,000.00,028.1,027.0,000.0,036.4,029.8,20.0,0000.0,0004.10,0011.83,0003.45
2023-09-01 05:39:00,SystemResetWarning,0829.1,4.99,000.00,028.2,027.1,000.0,036.4,029.9,20.1,0000.0,0004.10,0011.70,0003.47
2023-09-01 05:40:00,SystemResetWarning,0829.0,4.98,000.00,028.2,026.1,000.0,036.4,029.6,20.2,0000.0,0004.12,0011.80,0003.48
2023-09-01 05:41:00,SystemResetWarning,0829.0,5.02,000.00,028.1,024.9,000.0,036.3,029.3,20.2,0000.0,0004.14,0012.00,0003.47
2023-09-01 05:42:00,SystemResetWarning,0829.0,5.01,000.00,028.0,024.8,000.0,036.3,029.2,20.3,0000.0,0004.14,0012.50,0003.46
2023-09-01 05:43:00,SystemResetWarning,0829.0,5.00,000.00,027.9,025.0,000.0,036.3,029.2,20.4,0000.0,0004.13,0012.39,0003.45
2023-09-01 05:44:00,SystemResetWarning,0829.0,5.00,000.00,027.9,025.3,000.0,036.3,029.3,20.2,0000.0,0004.10,0012.36,0003.44
2023-09-01 05:45:00,SystemResetWarning,0829.0,5.01,000.00,027.9,025.7,000.0,036.3,029.4,20.4,0000.0,0004.07,0012.01,0003.42
2023-09-01 05:46:00,SystemResetWarning,0829.0,4.99,000.00,027.9,026.0,000.0,036.3,029.5,20.2,0000.0,0004.08,0011.98,0003.39
2023-09-01 05:47:00,SystemResetWarning,0829.0,5.00,000.00,028.0,026.3,000.0,036.4,029.6,20.1,0000.0,0004.06,0012.16,0003.36
2023-09-01 05:48:00,SystemResetWarning,0829.0,5.00,000.00,028.0,026.5,000.0,036.4,029.7,20.2,0000.0,0004.04,0011.45,0003.34
2023-09-01 05:49:00,SystemResetWarning,0828.9,5.00,000.00,028.1,026.7,000.0,036.4,029.7,20.3,0000.0,0004.00,0011.15,0003.31
2023-09-01 05:50:00,SystemResetWarning,0828.9,5.01,000.00,028.1,026.9,000.0,036.4,029.8,20.3,0000.0,0003.95,0011.23,0003.29
2023-09-01 05:51:00,SystemResetWarning,0829.0,5.01,000.00,028.1,027.1,000.0,036.4,029.9,20.3,0000.0,0003.94,0011.17,0003.28
2023-09-01 05:52:00,SystemResetWarning,0828.9,5.00,000.00,028.2,027.2,000.0,036.5,029.9,20.2,0000.0,0003.94,0011.03,0003.28
2023-09-01 05:53:00,SystemResetWarning,0828.9,4.99,000.00,028.2,026.7,000.0,036.5,029.8,19.8,0000.0,0003.93,0010.78,0003.28
2023-09-01 05:54:00,SystemResetWarning,0829.0,5.00,000.00,028.1,025.2,000.0,036.4,029.4,19.9,0000.0,0003.95,0010.64,0003.28
2023-09-01 05:55:00,SystemResetWarning,0829.0,5.01,000.00,028.0,024.8,000.0,036.3,029.3,20.1,0000.0,0004.00,0010.71,0003.28
2023-09-01 05:56:00,SystemResetWarning,0828.9,5.01,000.00,027.9,025.0,000.0,036.3,029.2,20.2,0000.0,0004.00,0010.85,0003.28
2023-09-01 05:57:00,SystemResetWarning,0828.9,5.00,000.00,027.9,025.3,000.0,036.3,029.3,20.4,0000.0,0003.99,0010.74,0003.27
2023-09-01 05:58:00,SystemResetWarning,0828.9,5.00,000.00,027.9,025.6,000.0,036.4,029.4,20.5,0000.0,0003.99,0010.12,0003.28
2023-09-01 05:59:00,SystemResetWarning,0828.9,5.00,000.00,028.0,026.0,000.0,036.4,029.5,20.4,0000.0,0003.98,0010.87,0003.27
